BAW3VH EGLL-LFPG

Flight info

Callsign BAW3VH
Flight time 0h 47m
Altitude 25000
Route MAXIT Y803 MID L612 BOGNA DCT HARDY UM605 BIBAX
Aircraft A20N/M-SDE2E3FGHIRWXY/LB1

Departure

Time 2026-05-03 20:48
Airport London Heathrow Airport (EGLL)

Arrival

Time 2026-05-03 21:36
Airport Charles de Gaulle International Airport (LFPG)
Time Latitude Longitude Altitude Speed Heading
2026-05-03 20:15 51.47231 -0.48584 84 ft 0 kts 269°
2026-05-03 20:33 51.47233 -0.48558 85 ft 2 kts 262°
2026-05-03 20:34 51.47236 -0.48532 88 ft 2 kts 251°
2026-05-03 20:34 51.47243 -0.48508 90 ft 2 kts 234°
2026-05-03 20:34 51.47254 -0.48489 88 ft 2 kts 211°
2026-05-03 20:34 51.47270 -0.48479 86 ft 2 kts 190°
2026-05-03 20:35 51.47284 -0.48476 84 ft 1 kts 179°
2026-05-03 20:35 51.47287 -0.48476 84 ft 0 kts 179°
2026-05-03 20:38 51.47274 -0.48476 87 ft 5 kts 179°
2026-05-03 20:39 51.47215 -0.48475 84 ft 12 kts 180°
2026-05-03 20:39 51.47122 -0.48475 84 ft 15 kts 180°
2026-05-03 20:39 51.47015 -0.48474 84 ft 16 kts 180°
2026-05-03 20:39 51.46895 -0.48471 88 ft 18 kts 179°
2026-05-03 20:40 51.46778 -0.48471 86 ft 14 kts 180°
2026-05-03 20:40 51.46677 -0.48454 86 ft 15 kts 144°
2026-05-03 20:40 51.46654 -0.48298 87 ft 17 kts 89°
2026-05-03 20:40 51.46654 -0.48054 84 ft 28 kts 90°
2026-05-03 20:41 51.46655 -0.47703 82 ft 33 kts 89°
2026-05-03 20:41 51.46658 -0.47321 83 ft 33 kts 89°
2026-05-03 20:41 51.46658 -0.46982 90 ft 28 kts 89°
2026-05-03 20:41 51.46659 -0.46708 91 ft 21 kts 90°
2026-05-03 20:42 51.46659 -0.46455 89 ft 24 kts 88°
2026-05-03 20:42 51.46660 -0.46186 85 ft 24 kts 90°
2026-05-03 20:42 51.46660 -0.45985 87 ft 13 kts 91°
2026-05-03 20:42 51.46661 -0.45831 79 ft 14 kts 88°
2026-05-03 20:43 51.46663 -0.45665 81 ft 14 kts 90°
2026-05-03 20:43 51.46663 -0.45544 82 ft 6 kts 90°
2026-05-03 20:43 51.46663 -0.45462 83 ft 9 kts 89°
2026-05-03 20:43 51.46664 -0.45359 85 ft 10 kts 91°
2026-05-03 20:44 51.46663 -0.45251 89 ft 11 kts 89°
2026-05-03 20:44 51.46664 -0.45126 92 ft 12 kts 89°
2026-05-03 20:44 51.46666 -0.44967 91 ft 16 kts 90°
2026-05-03 20:44 51.46665 -0.44775 91 ft 19 kts 90°
2026-05-03 20:45 51.46664 -0.44551 87 ft 20 kts 90°
2026-05-03 20:45 51.46667 -0.44317 84 ft 20 kts 89°
2026-05-03 20:45 51.46667 -0.44153 82 ft 0 kts 90°
2026-05-03 20:45 51.46667 -0.44119 81 ft 7 kts 92°
2026-05-03 20:46 51.46629 -0.44057 85 ft 9 kts 168°
2026-05-03 20:46 51.46604 -0.44055 87 ft 0 kts 179°
2026-05-03 20:46 51.46590 -0.44055 85 ft 6 kts 179°
2026-05-03 20:47 51.46525 -0.44060 85 ft 13 kts 193°
2026-05-03 20:47 51.46494 -0.44186 83 ft 6 kts 269°
2026-05-03 20:47 51.46494 -0.44189 83 ft 1 kts 269°
2026-05-03 20:47 51.46494 -0.44205 83 ft 0 kts 269°
2026-05-03 20:48 51.46493 -0.44240 84 ft 17 kts 269°
2026-05-03 20:48 51.46490 -0.44934 88 ft 105 kts 269°
2026-05-03 20:48 51.46480 -0.46486 160 ft 164 kts 269°
2026-05-03 20:48 51.46474 -0.48399 762 ft 180 kts 269°
2026-05-03 20:49 51.46453 -0.50460 1489 ft 191 kts 268°
2026-05-03 20:49 51.46404 -0.52663 2193 ft 206 kts 267°
2026-05-03 20:49 51.46055 -0.54996 2772 ft 228 kts 240°
2026-05-03 20:49 51.45140 -0.57224 3364 ft 250 kts 235°
2026-05-03 20:50 51.44130 -0.59599 4138 ft 262 kts 236°
2026-05-03 20:50 51.42930 -0.61779 5136 ft 263 kts 214°
2026-05-03 20:50 51.41262 -0.62867 6106 ft 266 kts 187°
2026-05-03 20:50 51.39422 -0.62592 7039 ft 270 kts 161°
2026-05-03 20:51 51.37717 -0.61273 7975 ft 274 kts 152°
2026-05-03 20:51 51.36034 -0.59789 8920 ft 278 kts 153°
2026-05-03 20:51 51.34277 -0.58440 9862 ft 282 kts 158°
2026-05-03 20:51 51.32427 -0.57234 10484 ft 296 kts 160°
2026-05-03 20:52 51.30859 -0.56320 10754 ft 314 kts 162°
2026-05-03 20:52 51.28723 -0.55170 11198 ft 331 kts 166°
2026-05-03 20:52 51.26432 -0.54857 12016 ft 331 kts 187°
2026-05-03 20:52 51.24193 -0.55570 12891 ft 333 kts 195°
2026-05-03 20:53 51.21927 -0.56612 13759 ft 337 kts 197°
2026-05-03 20:53 51.19685 -0.57620 14486 ft 341 kts 195°
2026-05-03 20:53 51.17374 -0.58540 15237 ft 344 kts 193°
2026-05-03 20:53 51.15026 -0.59376 15965 ft 348 kts 193°
2026-05-03 20:54 51.12649 -0.60166 16694 ft 351 kts 192°
2026-05-03 20:54 51.07783 -0.61625 18126 ft 359 kts 185°
2026-05-03 20:54 51.05276 -0.61342 18760 ft 366 kts 168°
2026-05-03 20:55 51.02901 -0.59847 19404 ft 373 kts 152°
2026-05-03 20:55 51.00729 -0.57562 20043 ft 376 kts 149°
2026-05-03 20:55 50.98551 -0.55213 20667 ft 379 kts 149°
2026-05-03 20:55 50.96356 -0.52852 21301 ft 382 kts 149°
2026-05-03 20:56 50.94144 -0.50485 21939 ft 384 kts 149°
2026-05-03 20:56 50.91914 -0.48107 22531 ft 387 kts 149°
2026-05-03 20:56 50.89696 -0.45749 23127 ft 390 kts 149°
2026-05-03 20:56 50.87433 -0.43347 23688 ft 393 kts 150°
2026-05-03 20:57 50.85148 -0.40926 24190 ft 396 kts 150°
2026-05-03 20:57 50.82854 -0.38497 24565 ft 398 kts 150°
2026-05-03 20:57 50.80546 -0.36056 24671 ft 398 kts 150°
2026-05-03 20:57 50.78241 -0.33621 24776 ft 399 kts 150°
2026-05-03 20:58 50.75928 -0.31181 24868 ft 399 kts 150°
2026-05-03 20:58 50.73612 -0.28740 24919 ft 400 kts 149°
2026-05-03 20:58 50.71435 -0.25979 24920 ft 405 kts 139°
2026-05-03 20:58 50.69596 -0.22578 24919 ft 411 kts 129°
2026-05-03 20:59 50.68170 -0.18648 24924 ft 416 kts 120°
2026-05-03 20:59 50.66919 -0.14522 24921 ft 416 kts 120°
2026-05-03 20:59 50.65682 -0.10464 24925 ft 416 kts 120°
2026-05-03 20:59 50.64422 -0.06357 24923 ft 416 kts 120°
2026-05-03 21:00 50.63155 -0.02247 24929 ft 416 kts 120°
2026-05-03 21:00 50.62726 -0.00858 24929 ft 416 kts 120°
2026-05-03 21:00 50.60614 0.05961 24926 ft 416 kts 120°
2026-05-03 21:00 50.59342 0.10056 24926 ft 417 kts 120°
2026-05-03 21:01 50.58068 0.14153 24925 ft 417 kts 120°
2026-05-03 21:01 50.56793 0.18248 24928 ft 417 kts 120°
2026-05-03 21:01 50.55515 0.22345 24926 ft 417 kts 120°
2026-05-03 21:01 50.54236 0.26437 24926 ft 417 kts 120°
2026-05-03 21:02 50.53387 0.29149 24931 ft 417 kts 120°
2026-05-03 21:02 50.52104 0.33240 24932 ft 417 kts 120°
2026-05-03 21:02 50.50819 0.37335 24933 ft 417 kts 120°
2026-05-03 21:02 50.49533 0.41423 24929 ft 417 kts 121°
2026-05-03 21:03 50.48197 0.45457 24929 ft 415 kts 126°
2026-05-03 21:03 50.46533 0.49142 24931 ft 410 kts 134°
2026-05-03 21:03 50.44559 0.52332 24929 ft 406 kts 143°
2026-05-03 21:03 50.42396 0.55075 24935 ft 404 kts 146°
2026-05-03 21:04 50.40198 0.57825 24935 ft 404 kts 146°
2026-05-03 21:04 50.38004 0.60582 24929 ft 404 kts 146°
2026-05-03 21:04 50.35812 0.63339 24930 ft 404 kts 146°
2026-05-03 21:04 50.33618 0.66097 24939 ft 404 kts 146°
2026-05-03 21:05 50.31425 0.68850 24941 ft 404 kts 146°
2026-05-03 21:05 50.29229 0.71600 24942 ft 404 kts 146°
2026-05-03 21:05 50.27035 0.74346 24941 ft 404 kts 146°
2026-05-03 21:05 50.24839 0.77090 24939 ft 404 kts 146°
2026-05-03 21:06 50.22646 0.79827 24935 ft 404 kts 146°
2026-05-03 21:06 50.20451 0.82563 24939 ft 404 kts 146°
2026-05-03 21:06 50.18253 0.85299 24943 ft 403 kts 146°
2026-05-03 21:06 50.16054 0.88033 24937 ft 403 kts 146°
2026-05-03 21:07 50.13863 0.90755 24938 ft 403 kts 146°
2026-05-03 21:07 50.11670 0.93476 24938 ft 403 kts 146°
2026-05-03 21:07 50.09502 0.96162 24939 ft 403 kts 146°
2026-05-03 21:07 50.07308 0.98870 24938 ft 402 kts 148°
2026-05-03 21:08 50.05004 1.01292 24905 ft 397 kts 154°
2026-05-03 21:08 50.02568 1.03261 24610 ft 392 kts 159°
2026-05-03 21:08 50.00114 1.05088 24121 ft 390 kts 159°
2026-05-03 21:08 49.97675 1.06907 23564 ft 388 kts 159°
2026-05-03 21:09 49.95263 1.08713 23263 ft 380 kts 158°
2026-05-03 21:09 49.92857 1.10516 23134 ft 387 kts 158°
2026-05-03 21:09 49.90424 1.12337 23015 ft 387 kts 158°
2026-05-03 21:09 49.88006 1.14155 22945 ft 385 kts 158°
2026-05-03 21:10 49.85591 1.15977 22933 ft 386 kts 158°
2026-05-03 21:10 49.83178 1.17802 22935 ft 386 kts 158°
2026-05-03 21:10 49.80760 1.19637 22933 ft 386 kts 158°
2026-05-03 21:10 49.78357 1.21468 22937 ft 386 kts 158°
2026-05-03 21:11 49.75976 1.23287 22937 ft 386 kts 158°
2026-05-03 21:11 49.73537 1.25154 22935 ft 386 kts 158°
2026-05-03 21:11 49.71157 1.26979 22740 ft 387 kts 158°
2026-05-03 21:11 49.68752 1.28830 22470 ft 384 kts 158°
2026-05-03 21:12 49.66370 1.30671 22201 ft 383 kts 158°
2026-05-03 21:12 49.63990 1.32516 21930 ft 382 kts 158°
2026-05-03 21:12 49.61621 1.34359 21660 ft 381 kts 158°
2026-05-03 21:12 49.59257 1.36204 21396 ft 379 kts 157°
2026-05-03 21:13 49.56917 1.38038 21111 ft 377 kts 157°
2026-05-03 21:13 49.54575 1.39878 20574 ft 378 kts 157°
2026-05-03 21:13 49.52236 1.41719 19942 ft 377 kts 157°
2026-05-03 21:13 49.49905 1.43557 19338 ft 376 kts 156°
2026-05-03 21:14 49.47582 1.45393 18733 ft 374 kts 156°
2026-05-03 21:14 49.45272 1.47222 18128 ft 372 kts 156°
2026-05-03 21:14 49.42973 1.49045 17434 ft 370 kts 156°
2026-05-03 21:14 49.40687 1.50861 16788 ft 369 kts 156°
2026-05-03 21:15 49.38417 1.52666 16142 ft 367 kts 156°
2026-05-03 21:15 49.36157 1.54465 15506 ft 365 kts 156°
2026-05-03 21:15 49.33938 1.56233 14893 ft 363 kts 155°
2026-05-03 21:15 49.31673 1.58039 14276 ft 362 kts 155°
2026-05-03 21:16 49.29474 1.59794 13682 ft 360 kts 155°
2026-05-03 21:16 49.27257 1.61564 13014 ft 359 kts 155°
2026-05-03 21:16 49.25047 1.63327 12391 ft 356 kts 155°
2026-05-03 21:16 49.22893 1.65057 12147 ft 344 kts 154°
2026-05-03 21:17 49.21044 1.67312 11849 ft 341 kts 134°
2026-05-03 21:17 49.20145 1.69348 11475 ft 345 kts 119°
2026-05-03 21:17 49.19496 1.74083 11066 ft 350 kts 89°
2026-05-03 21:17 49.19697 1.77815 10961 ft 353 kts 86°
2026-05-03 21:18 49.19922 1.81551 10939 ft 352 kts 86°
2026-05-03 21:18 49.20146 1.85284 10945 ft 353 kts 86°
2026-05-03 21:18 49.20370 1.89026 10934 ft 353 kts 86°
2026-05-03 21:18 49.20594 1.92765 10937 ft 353 kts 86°
2026-05-03 21:19 49.20817 1.96499 10939 ft 353 kts 86°
2026-05-03 21:19 49.21041 2.00244 10942 ft 353 kts 86°
2026-05-03 21:19 49.21263 2.03983 10938 ft 353 kts 86°
2026-05-03 21:19 49.21484 2.07721 10943 ft 353 kts 86°
2026-05-03 21:20 49.21705 2.11464 10940 ft 353 kts 86°
2026-05-03 21:20 49.21926 2.15205 10938 ft 353 kts 86°
2026-05-03 21:20 49.22147 2.18947 10880 ft 352 kts 86°
2026-05-03 21:20 49.22363 2.22625 10612 ft 349 kts 86°
2026-05-03 21:21 49.22575 2.26259 10489 ft 337 kts 86°
2026-05-03 21:21 49.22780 2.29764 10370 ft 324 kts 86°
2026-05-03 21:21 49.22977 2.33132 10249 ft 312 kts 86°
2026-05-03 21:21 49.23170 2.36387 10044 ft 303 kts 86°
2026-05-03 21:22 49.23357 2.39591 9692 ft 301 kts 86°
2026-05-03 21:22 49.23542 2.42769 9293 ft 299 kts 86°
2026-05-03 21:22 49.23722 2.45884 8897 ft 297 kts 86°
2026-05-03 21:22 49.23905 2.49025 8511 ft 295 kts 86°
2026-05-03 21:23 49.24084 2.52142 8149 ft 293 kts 87°
2026-05-03 21:23 49.24262 2.55225 7997 ft 292 kts 87°
2026-05-03 21:23 49.24440 2.58339 7956 ft 293 kts 87°
2026-05-03 21:23 49.24618 2.61441 7956 ft 293 kts 87°
2026-05-03 21:24 49.24796 2.64548 7951 ft 293 kts 87°
2026-05-03 21:24 49.24975 2.67667 7954 ft 293 kts 87°
2026-05-03 21:24 49.25153 2.70772 7950 ft 293 kts 87°
2026-05-03 21:24 49.25330 2.73880 7950 ft 293 kts 87°
2026-05-03 21:25 49.25507 2.76947 7951 ft 293 kts 87°
2026-05-03 21:25 49.25687 2.80091 7904 ft 292 kts 87°
2026-05-03 21:25 49.25860 2.83131 7658 ft 290 kts 87°
2026-05-03 21:25 49.26036 2.86210 7302 ft 289 kts 87°
2026-05-03 21:26 49.26004 2.89260 6923 ft 284 kts 106°
2026-05-03 21:26 49.25179 2.91935 6506 ft 276 kts 133°
2026-05-03 21:26 49.23818 2.93908 6351 ft 263 kts 142°
2026-05-03 21:26 49.22479 2.95721 6245 ft 251 kts 142°
2026-05-03 21:27 49.21199 2.97461 6117 ft 241 kts 142°
2026-05-03 21:27 49.19954 2.99153 5830 ft 239 kts 142°
2026-05-03 21:27 49.18712 3.00839 5511 ft 238 kts 142°
2026-05-03 21:27 49.17475 3.02512 5215 ft 237 kts 142°
2026-05-03 21:28 49.16244 3.04159 5017 ft 232 kts 146°
2026-05-03 21:28 49.14780 3.05100 4987 ft 229 kts 177°
2026-05-03 21:28 49.13195 3.05182 4988 ft 227 kts 182°
2026-05-03 21:28 49.11616 3.05212 4987 ft 228 kts 182°
2026-05-03 21:29 49.10050 3.05240 4987 ft 227 kts 182°
2026-05-03 21:29 49.08491 3.05062 4984 ft 223 kts 200°
2026-05-03 21:29 49.07214 3.03769 4988 ft 224 kts 232°
2026-05-03 21:29 49.06426 3.01721 4991 ft 224 kts 242°
2026-05-03 21:30 49.05714 2.99608 4989 ft 224 kts 242°
2026-05-03 21:30 49.05111 2.97419 4991 ft 225 kts 252°
2026-05-03 21:30 49.04802 2.95085 4988 ft 225 kts 261°
2026-05-03 21:30 49.04643 2.92699 4983 ft 226 kts 263°
2026-05-03 21:31 49.04520 2.90349 4824 ft 219 kts 263°
2026-05-03 21:31 49.04394 2.88048 4521 ft 216 kts 263°
2026-05-03 21:31 49.04272 2.85782 4229 ft 213 kts 263°
2026-05-03 21:31 49.04151 2.83541 3944 ft 210 kts 263°
2026-05-03 21:32 49.04031 2.81327 3666 ft 208 kts 263°
2026-05-03 21:32 49.03915 2.79172 3396 ft 206 kts 263°
2026-05-03 21:32 49.03798 2.77022 3117 ft 200 kts 263°
2026-05-03 21:32 49.03687 2.74946 2858 ft 192 kts 263°
2026-05-03 21:33 49.03581 2.72990 2633 ft 180 kts 263°
2026-05-03 21:33 49.03481 2.71136 2388 ft 171 kts 263°
2026-05-03 21:33 49.03387 2.69385 2156 ft 160 kts 263°
2026-05-03 21:33 49.03299 2.67763 1939 ft 147 kts 263°
2026-05-03 21:34 49.03219 2.66271 1754 ft 136 kts 263°
2026-05-03 21:34 49.03141 2.64859 1599 ft 135 kts 263°
2026-05-03 21:34 49.03065 2.63439 1404 ft 133 kts 263°
2026-05-03 21:34 49.02988 2.62026 1214 ft 136 kts 263°
2026-05-03 21:35 49.02911 2.60586 1022 ft 137 kts 263°
2026-05-03 21:35 49.02832 2.59137 829 ft 137 kts 263°
2026-05-03 21:35 49.02755 2.57691 634 ft 137 kts 262°
2026-05-03 21:35 49.02676 2.56256 427 ft 135 kts 261°
2026-05-03 21:36 49.02602 2.54847 355 ft 129 kts 262°
2026-05-03 21:36 49.02544 2.53854 358 ft 52 kts 266°
2026-05-03 21:36 49.02520 2.53354 362 ft 46 kts 265°
2026-05-03 21:36 49.02492 2.52888 357 ft 40 kts 259°
2026-05-03 21:37 49.02356 2.52680 359 ft 5 kts 191°
2026-05-03 21:37 49.02348 2.52682 358 ft 0 kts 170°
2026-05-03 21:38 49.02343 2.52683 354 ft 4 kts 170°
2026-05-03 21:38 49.02258 2.52698 355 ft 17 kts 176°
2026-05-03 21:38 49.02239 2.52700 355 ft 0 kts 175°
2026-05-03 21:40 49.02224 2.52702 359 ft 6 kts 175°
2026-05-03 21:40 49.02163 2.52710 356 ft 11 kts 175°
2026-05-03 21:40 49.02079 2.52720 363 ft 14 kts 175°
2026-05-03 21:40 49.01977 2.52734 355 ft 16 kts 174°
2026-05-03 21:41 49.01860 2.52764 357 ft 18 kts 151°
2026-05-03 21:41 49.01835 2.52937 354 ft 18 kts 84°
2026-05-03 21:41 49.01847 2.53145 354 ft 21 kts 86°
2026-05-03 21:41 49.01857 2.53371 354 ft 22 kts 86°
2026-05-03 21:42 49.01871 2.53616 354 ft 24 kts 84°
2026-05-03 21:42 49.01887 2.53881 361 ft 26 kts 86°
2026-05-03 21:42 49.01900 2.54145 354 ft 19 kts 86°
2026-05-03 21:42 49.01910 2.54357 354 ft 21 kts 85°
2026-05-03 21:43 49.01921 2.54592 356 ft 23 kts 84°
2026-05-03 21:43 49.01937 2.54845 358 ft 25 kts 83°
2026-05-03 21:43 49.01944 2.55091 362 ft 11 kts 126°
2026-05-03 21:43 49.01888 2.55105 355 ft 9 kts 168°
2026-05-03 21:44 49.01814 2.55130 355 ft 12 kts 168°
2026-05-03 21:44 49.01721 2.55146 355 ft 14 kts 176°
2026-05-03 21:44 49.01613 2.55155 355 ft 16 kts 176°
2026-05-03 21:44 49.01494 2.55170 358 ft 18 kts 173°
2026-05-03 21:45 49.01364 2.55208 360 ft 20 kts 166°
2026-05-03 21:45 49.01232 2.55179 355 ft 20 kts 198°
2026-05-03 21:45 49.01095 2.55189 361 ft 21 kts 163°
2026-05-03 21:45 49.00951 2.55252 361 ft 22 kts 163°
2026-05-03 21:46 49.00799 2.55319 356 ft 23 kts 164°
2026-05-03 21:46 49.00639 2.55387 362 ft 22 kts 164°
2026-05-03 21:46 49.00490 2.55455 353 ft 23 kts 165°
2026-05-03 21:46 49.00330 2.55520 355 ft 24 kts 164°
2026-05-03 21:47 49.00170 2.55592 358 ft 23 kts 163°
2026-05-03 21:47 49.00071 2.55681 356 ft 14 kts 92°
2026-05-03 21:47 49.00073 2.55845 353 ft 17 kts 88°
2026-05-03 21:47 49.00083 2.56037 355 ft 19 kts 84°
2026-05-03 21:48 49.00094 2.56254 353 ft 22 kts 86°
2026-05-03 21:48 49.00102 2.56411 360 ft 23 kts 85°
2026-05-03 21:48 49.00120 2.56751 356 ft 26 kts 84°
2026-05-03 21:48 49.00180 2.56926 353 ft 17 kts 357°
2026-05-03 21:49 49.00220 2.56908 360 ft 0 kts 343°